Location: Poughquag
(41.6090°N, 73.6820°W)
Time: 09:51:18
(UTC-05:00)

SR - Pass Details

Date: 08 December 2023
Orbit: 574 x 868 km, 66.7° (Epoch: 25 February)

Event Time Altitude Azimuth Distance (km) Brightness Sun altitude
Rises 10:47:09 0° 219° (SW) 3,249 ? 24.2°
Reaches altitude 10° 10:49:31 10° 222° (SW) 2,365 ? 24.3°
Maximum altitude 10:54:57 62° 303° (WNW) 938 ? 24.6°
Drops below altitude 10° 11:00:44 10° 24° (NNE) 2,506 ? 24.8°
Sets 11:03:18 0° 28° (NNE) 3,458 ? 24.9°
